SCP
7 5 4 4 5 4 3 3 4 4 3 3 3 3 3 4 5 6 7 9 11 13 13 13 13 13 13 12 11 8 7 7 7 5 4 3 3 3 2 2 2 2 2
6 5 4 5 6 6 4 4 5 4 3 4 4 4 4 4 5 6 8 9 11 12 13 13 12 12 12 13 12 10 9 9 9 7 5 4 3 3 2 2 2 2 2
6 5 4 5 6 6 5 5 5 4 4 4 5 5 5 6 6 7 9 10 11 11 11 11 10 10 10 11 11 11 11 10 10 8 6 4 3 2 2 2 1 1 1
6 6 5 4 4 5 5 5 5 4 4 4 5 6 7 7 8 9 10 11 12 12 10 9 8 7 8 8 8 9 10 10 9 7 4 3 2 2 1 1 1 2 2
7 6 5 5 4 4 5 5 5 5 4 5 5 6 8 9 9 10 10 11 11 11 9 8 6 5 5 4 5 6 7 7 6 4 3 2 1 1 1 1 1 2 2
5 6 6 6 5 5 5 6 6 6 6 6 6 7 9 10 9 9 11 12 10 9 8 7 5 4 2 2 2 2 3 3 2 2 2 1 1 1 1 1 1 2 2
5 5 7 7 7 6 6 7 7 7 6 6 6 8 11 13 10 7 9 13 12 9 6 5 4 2 2 1 1 1 1 1 1 1 1 1 1 1 1 1 1 1 1
5 7 8 8 8 7 7 7 7 7 6 5 5 6 9 12 9 5 6 12 13 9 6 5 3 2 2 1 1 1 2 1 1 0 1 1 1 1 1 1 1 1 1
7 8 10 9 9 8 8 7 7 6 5 4 4 5 6 7 5 2 4 9 12 9 6 4 3 2 1 1 1 2 2 2 1 0 0 0 0 0 0 1 1 1 1
12 13 13 11 10 9 8 7 6 5 4 4 4 4 4 3 2 1 2 5 8 6 5 3 2 2 1 1 1 2 2 1 1 1 0 0 0 0 0 0 1 1 1
19 18 15 12 10 8 7 6 6 5 4 3 3 2 2 2 2 1 1 2 3 3 3 2 2 1 1 0 1 1 1 1 1 1 0 0 0 0 0 0 0 1 1
18 17 14 11 9 7 6 6 6 5 4 2 2 2 2 2 2 2 1 1 1 1 1 2 1 1 0 0 0 1 1 1 1 0 0 0 0 0 0 0 0 0 0
16 14 12 9 8 7 6 5 5 5 4 3 2 2 2 3 2 2 1 1 1 1 1 1 1 1 0 0 0 0 0 0 1 0 0 0 0 0 0 1 1 0 0
19 15 11 8 7 6 6 5 5 5 5 4 4 4 4 4 4 3 2 2 1 1 1 1 1 1 1 0 0 0 0 1 1 0 0 1 1 1 0 0 0 0 0
19 15 10 7 6 6 5 5 4 4 4 5 6 7 6 5 5 4 3 2 1 1 1 1 2 2 1 1 1 1 1 1 1 0 0 1 1 0 0 0 0 0 0
16 13 8 5 5 5 6 4 3 2 2 4 6 7 6 5 4 3 2 1 0 0 0 1 2 3 2 2 1 1 1 1 1 1 0 0 0 0 0 0 0 0 0
12 9 6 5 5 6 7 5 2 1 1 1 3 3 3 2 1 1 0 0 0 0 0 1 2 3 3 3 2 2 2 2 2 1 1 1 0 0 0 0 0 0 0
6 5 4 5 5 7 8 7 5 3 2 1 1 1 0 0 0 0 0 0 0 0 0 1 1 2 3 3 3 2 2 2 2 2 1 1 1 0 0 0 0 0 0
4 4 4 4 5 7 8 8 6 5 4 3 2 1 1 0 0 0 0 0 0 0 0 0 1 1 3 3 3 3 3 3 3 2 1 1 1 1 0 0 0 0 0
3 3 3 3 4 6 8 8 7 5 5 4 4 3 2 1 1 1 0 0 0 0 0 1 1 1 2 3 3 4 4 5 4 3 2 1 1 1 0 0 0 0 0
3 3 2 2 3 4 5 6 6 5 5 4 4 4 2 2 1 1 1 1 1 0 0 0 1 1 1 2 3 4 5 5 4 3 2 2 1 1 1 0 1 1 0
3 3 3 2 2 2 2 3 4 4 4 4 4 3 2 2 2 2 1 1 1 0 0 0 0 1 1 2 3 4 5 5 4 3 2 1 1 1 0 1 1 1 1
4 3 3 3 2 2 1 2 2 3 3 3 4 4 3 2 3 2 1 1 1 0 0 1 1 1 1 2 3 4 4 4 3 2 1 1 0 0 0 0 1 1 1
3 3 3 3 3 2 1 1 1 2 2 3 3 3 3 3 3 2 1 1 1 1 1 1 1 1 1 1 2 3 4 3 2 1 1 0 0 0 0 0 0 0 0
3 3 3 3 2 2 2 1 1 1 1 2 2 2 2 2 2 2 1 1 1 1 1 1 1 1 1 1 2 3 3 2 1 1 0 0 0 0 0 0 0 0 0
2 2 2 2 2 2 1 1 1 1 1 1 1 1 1 1 1 1 1 1 1 1 1 1 0 1 1 1 2 2 2 1 0 0 0 0 0 0 0 0 0 0 0
Wind_Speed
6 5 4 4 4 3 2 2 1 1 1 0 0 0 0 0 0 0 0 0 0 0 1 1 1 1 1 1 1 1 1 1 2 2 2 3 3 3 4 4 4 4 6
7 6 5 4 4 3 3 2 2 1 1 1 1 1 0 0 0 0 0 0 0 0 1 1 1 0 0 1 0 1 1 2 3 4 3 3 4 4 4 3 4 4 5
7 7 6 5 4 3 3 2 2 2 1 1 1 1 1 1 1 1 1 0 0 0 1 1 1 1 1 0 0 1 1 2 3 4 4 3 4 4 4 4 4 2 4
8 7 6 5 4 3 3 2 2 2 2 2 1 1 1 1 1 1 1 1 1 1 1 1 1 1 1 0 1 1 1 2 3 4 4 4 3 3 3 3 3 3 2
8 7 6 5 4 4 3 3 3 2 2 2 2 2 1 1 1 1 1 2 1 1 1 1 2 4 5 4 2 1 2 2 3 4 4 3 3 3 3 2 3 3 3
8 7 7 6 5 4 4 4 3 3 2 2 2 2 2 2 4 3 1 2 2 2 2 2 3 4 6 7 7 7 5 2 2 2 2 3 3 3 2 2 2 2 2
8 7 7 7 6 5 4 4 4 3 3 2 2 2 2 3 3 2 1 1 2 2 2 2 2 5 4 5 6 6 6 6 4 1 1 1 2 2 2 3 1 1 0
8 8 7 7 6 6 5 5 4 3 3 2 2 2 2 3 2 1 1 2 3 3 3 3 3 4 3 3 4 5 4 4 2 1 1 1 1 1 2 2 2 3 2
9 8 8 7 7 6 5 4 4 3 3 3 3 2 2 3 2 2 3 3 3 3 3 3 2 3 4 2 2 4 4 4 5 5 5 4 5 3 1 2 2 3 2
9 8 8 7 7 6 5 5 4 4 4 3 3 2 3 3 3 2 3 2 3 3 3 4 4 3 3 1 1 2 3 2 3 5 4 4 4 4 3 2 2 2 1
8 7 7 7 7 6 6 5 5 4 4 3 3 3 3 3 4 2 1 1 2 3 3 3 4 5 3 1 1 1 1 1 2 3 3 3 3 3 2 1 1 2 2
8 7 7 7 6 6 6 5 4 4 4 4 3 3 3 3 3 3 1 1 2 2 1 2 4 5 3 2 1 1 1 4 3 2 2 2 2 2 2 1 1 1 2
8 7 6 6 5 5 6 6 5 4 3 3 4 3 3 3 4 4 4 1 1 0 2 5 4 5 4 4 4 3 4 3 2 2 2 2 1 1 2 2 3 2 2
8 7 6 6 6 5 4 4 4 4 4 4 3 3 3 3 3 4 5 5 5 4 3 5 6 5 4 2 4 5 4 2 2 2 1 1 1 2 3 2 2 3 3
8 7 6 6 6 5 4 2 2 2 1 2 2 3 3 3 2 1 2 3 2 2 2 3 4 4 4 4 3 3 2 3 3 3 2 2 2 2 2 1 2 3 3
6 6 5 5 5 5 5 4 5 3 4 2 2 1 2 3 5 4 2 1 1 2 3 4 3 3 3 3 3 3 3 3 2 3 3 3 3 3 3 2 3 3 3
5 5 4 4 5 5 5 5 5 3 3 3 2 1 1 3 4 4 4 3 3 4 5 4 4 3 3 3 3 3 3 2 2 3 3 3 3 3 3 3 3 4 4
5 4 4 4 4 4 4 4 4 5 5 4 5 5 4 4 4 5 5 5 4 5 6 4 4 3 3 3 3 3 2 3 3 4 4 4 4 4 4 4 4 4 4
4 4 4 3 4 4 4 4 4 4 4 4 5 6 6 6 6 5 6 6 5 5 5 4 4 3 3 3 3 3 3 3 3 4 4 4 4 4 4 4 4 3 5
3 4 4 4 4 4 4 4 4 4 5 4 4 4 6 6 5 6 7 6 5 5 5 5 4 4 4 4 4 4 4 4 4 5 4 4 4 4 5 5 5 4 5
4 5 5 4 4 3 3 4 3 4 4 4 4 3 4 5 5 5 5 5 5 4 4 4 3 4 4 4 4 4 5 4 4 4 4 4 4 4 5 5 5 5 5
3 4 4 4 3 3 3 3 4 4 4 5 4 5 7 6 5 4 4 4 4 4 4 4 4 4 4 3 4 4 4 4 4 4 4 4 5 5 5 5 5 5 5
4 4 4 4 3 4 4 4 4 4 5 5 4 4 6 6 5 4 4 4 4 4 4 4 4 4 3 4 4 5 5 4 4 4 5 5 5 5 5 6 6 6 6
3 4 4 4 3 3 3 3 4 4 4 4 4 4 4 4 4 5 4 3 4 4 4 4 4 4 5 4 4 4 3 3 4 4 6 6 6 6 6 6 6 7 6
2 3 3 3 3 3 3 3 3 4 4 4 4 4 4 4 5 4 4 4 5 4 5 4 4 5 6 6 5 3 1 1 3 5 5 6 7 6 6 7 6 6 6
3 3 3 3 3 3 3 3 3 3 4 3 3 3 3 4 4 3 4 4 4 4 4 4 5 5 5 5 4 3 2 3 3 4 5 5 6 6 6 6 7 6 7
Wind_Direction
178 178 178 175 176 184 190 207 209 248 261 272 288 287 280 265 213 219 294 136 54 24 357 31 2 341 317 275 252 219 214 170 155 117 109 113 117 108 109 109 108 108 99
173 173 173 172 175 179 173 188 173 185 197 174 166 135 95 66 95 170 200 88 87 61 20 16 355 1 307 296 289 167 156 163 162 143 140 139 124 121 117 119 109 105 103
166 168 165 168 168 172 167 172 163 167 168 158 144 143 116 99 113 123 123 103 97 50 10 4 352 335 308 26 227 149 163 157 151 151 146 134 134 136 133 116 107 110 117
163 163 161 161 161 160 153 154 161 158 152 147 139 149 138 130 137 136 134 129 124 100 58 30 14 350 347 353 126 134 147 141 144 152 143 142 138 149 157 149 144 139 125
162 159 156 153 150 148 147 150 151 147 144 146 157 142 137 140 85 89 151 145 142 125 102 84 69 55 42 25 26 84 139 155 150 145 146 146 146 166 179 181 160 154 140
163 157 151 149 147 149 152 152 149 146 144 147 148 136 120 77 53 22 335 133 128 125 118 113 113 105 89 74 58 53 45 78 124 150 152 150 160 177 173 188 182 175 156
162 157 154 152 153 156 155 148 146 144 137 145 148 143 121 84 66 55 349 146 122 103 101 96 88 93 106 102 100 104 81 58 40 1 126 148 156 170 190 188 182 205 141
161 159 157 156 154 155 152 148 146 141 135 138 142 136 129 105 88 113 214 161 121 108 104 102 101 103 91 94 110 104 100 91 81 108 98 92 83 120 205 200 174 175 173
166 164 162 159 154 154 154 152 150 148 144 147 132 129 131 114 107 168 235 158 134 124 117 105 111 115 77 39 125 119 114 120 106 87 67 73 71 78 322 233 189 201 190
169 167 163 159 156 156 153 152 152 154 153 151 131 132 128 114 110 155 253 177 141 142 136 132 105 96 93 35 143 131 134 124 128 135 138 156 156 150 198 256 257 245 228
166 164 160 158 158 156 152 153 152 152 147 142 132 133 131 121 131 137 283 232 159 156 142 141 116 113 116 108 269 138 128 239 178 169 162 158 157 155 173 176 318 310 311
157 159 159 159 161 153 152 151 151 151 153 156 155 156 149 147 125 137 158 283 327 145 144 125 112 127 139 158 173 107 219 251 216 185 181 173 170 163 145 139 122 17 355
154 154 154 153 155 154 156 154 157 170 179 175 177 177 163 151 137 138 151 159 325 230 90 76 109 148 173 173 166 195 225 230 223 209 192 180 170 148 173 173 172 182 199
153 152 153 155 158 157 160 165 176 182 192 191 189 184 165 161 161 163 167 170 175 185 174 152 170 187 208 172 174 198 218 229 254 237 227 199 175 176 205 207 204 200 204
152 154 159 162 159 158 160 151 194 171 212 221 206 188 180 180 147 126 207 186 185 160 186 195 192 182 191 193 194 196 213 207 220 235 228 213 210 213 219 223 244 246 244
156 162 170 165 161 171 164 145 62 71 88 80 33 333 140 114 139 154 172 163 148 175 225 216 210 210 212 208 206 202 210 214 224 236 234 232 230 227 223 222 236 248 253
161 169 170 167 169 180 181 176 165 142 118 123 138 136 138 142 152 165 172 173 181 190 226 232 229 228 232 230 225 226 224 208 223 239 240 240 241 241 238 234 237 246 255
161 160 172 174 178 182 187 191 190 185 179 177 175 180 177 170 171 173 168 175 196 209 230 237 238 238 235 239 240 240 236 225 227 243 248 248 247 247 246 247 247 253 259
166 167 172 172 179 184 191 196 193 196 196 188 174 167 184 183 184 189 189 214 217 213 222 231 237 240 239 236 237 235 239 237 239 249 249 252 252 254 256 261 263 249 260
161 149 171 185 187 188 191 199 200 202 205 202 199 187 174 188 198 191 203 221 230 228 229 233 236 239 233 231 225 227 231 233 231 237 244 245 246 251 254 258 264 261 258
168 163 182 197 195 195 196 202 207 214 213 211 211 185 184 207 210 211 214 217 228 236 236 240 237 233 233 236 238 236 236 235 230 233 235 235 240 247 254 257 259 262 267
178 176 190 198 189 196 204 206 212 217 214 215 210 181 182 221 226 219 215 216 222 230 232 230 230 232 235 232 236 243 241 239 240 240 242 242 241 247 252 255 259 265 264
187 184 187 191 188 179 200 208 212 215 215 214 211 202 194 217 224 223 222 219 218 221 224 222 229 232 228 230 235 238 242 243 243 247 251 252 255 254 254 255 258 262 263
189 188 190 189 190 195 201 210 217 217 217 218 219 218 212 209 224 225 224 218 218 219 223 223 229 235 234 237 238 236 241 262 264 254 250 256 259 261 259 257 258 262 265
196 195 194 196 201 203 201 210 220 221 222 222 223 224 220 214 218 222 220 218 220 224 226 225 226 227 228 234 242 245 169 205 264 277 250 250 257 261 265 266 263 264 263
202 201 197 198 205 213 220 222 220 227 230 226 225 226 225 223 222 224 222 222 223 219 219 221 223 221 220 227 230 218 173 188 223 258 265 256 256 257 261 265 265 263 262